Voltar ao catálogo

CZ-6A DEB

AtivoSSO
NORAD 54491·DEBRIS·🇨🇳 China

Lançado Nov 11, 2022 de Taiyuan Satellite Launch Center

Loading…

Próximas Passagens (próximas 24 horas)

TLE

AtualizadoSource: Space-Track

Época: Sep 13, 2026, 22:54 UTC

1 54491U 22151HT  26256.95425198  .00000319  00000-0  20219-3 0  9998
2 54491  98.9133 264.0584 0108999  45.6559 315.3479 14.07863669196612

Acompanhe CZ-6A DEB em tempo real com AllMySat

Download on the App Store